• în România
  • Lista ţărilor
  • Pe 7 zile
  • Temperatura apei
  • Hartă satelitară
  • Meteo pe hartă
  • Widget-uri
  • user-avatar
    Intrare

    Meteo pe oră la Sankt Polten

    Astăzi, 23 August, Miercuri

    Timp Temperatura Precipitaţii Vânt Presiune Umiditate
    00:00 +14°C° 0 mm 1 m/s 738 mmHg 80%
    01:00 +14°C° 0 mm 1 m/s 738 mmHg 80%
    02:00 +13°C° 0 mm 1 m/s 738 mmHg 82%
    03:00 +13°C° 0 mm 1 m/s 738 mmHg 85%
    04:00 +12°C° 0 mm 1 m/s 738 mmHg 87%
    05:00 +13°C° 0 mm 1 m/s 738 mmHg 83%
    06:00 +14°C° 0 mm 1 m/s 738 mmHg 79%
    07:00 +16°C° 0 mm 1 m/s 739 mmHg 71%
    08:00 +19°C° 0 mm 1 m/s 739 mmHg 64%
    09:00 +21°C° 0 mm 1 m/s 739 mmHg 58%
    10:00 +23°C° 0 mm 1 m/s 739 mmHg 51%
    11:00 +24°C° 0 mm 1 m/s 738 mmHg 48%
    12:00 +25°C° 0 mm 1 m/s 738 mmHg 45%
    13:00 +26°C° 0 mm 1 m/s 738 mmHg 41%
    14:00 +25°C° 0 mm 1 m/s 738 mmHg 42%
    15:00 +25°C° 0 mm 1 m/s 738 mmHg 42%
    16:00 +25°C° 0 mm 1 m/s 737 mmHg 43%
    17:00 +23°C° 0 mm 1 m/s 737 mmHg 51%
    18:00 +21°C° 0 mm 1 m/s 737 mmHg 59%
    19:00 +16°C° 0 mm 0 m/s 737 mmHg 67%
    20:00 +16°C° 0 mm 0 m/s 737 mmHg 69%
    21:00 +16°C° 0 mm 1 m/s 738 mmHg 70%
    22:00 +15°C° 0 mm 1 m/s 738 mmHg 72%
    23:00 +15°C° 0 mm 1 m/s 738 mmHg 73%

    Mâine, 24 August, Joi

    Timp Temperatura Precipitaţii Vânt Presiune Umiditate
    00:00 +15°C° 0 mm 1 m/s 738 mmHg 75%
    01:00 +14°C° 0 mm 1 m/s 738 mmHg 76%
    02:00 +14°C° 0 mm 1 m/s 738 mmHg 77%
    03:00 +14°C° 0 mm 1 m/s 738 mmHg 78%
    04:00 +14°C° 0 mm 1 m/s 738 mmHg 78%
    05:00 +15°C° 0 mm 1 m/s 738 mmHg 75%
    06:00 +18°C° 0 mm 1 m/s 738 mmHg 72%
    07:00 +19°C° 0 mm 1 m/s 738 mmHg 69%
    08:00 +22°C° 0 mm 1 m/s 738 mmHg 62%
    09:00 +25°C° 0 mm 1 m/s 738 mmHg 55%
    10:00 +27°C° 0 mm 1 m/s 738 mmHg 48%
    11:00 +28°C° 0 mm 1 m/s 738 mmHg 46%
    12:00 +29°C° 0 mm 2 m/s 738 mmHg 44%
    13:00 +30°C° 0 mm 2 m/s 738 mmHg 41%
    14:00 +30°C° 0 mm 2 m/s 738 mmHg 43%
    15:00 +30°C° 0 mm 2 m/s 737 mmHg 45%
    16:00 +30°C° 0 mm 2 m/s 737 mmHg 47%
    17:00 +28°C° 0 mm 2 m/s 737 mmHg 57%
    18:00 +25°C° 0 mm 2 m/s 737 mmHg 66%
    19:00 +23°C° 0 mm 1 m/s 737 mmHg 76%
    20:00 +22°C° 0 mm 1 m/s 737 mmHg 77%
    21:00 +22°C° 0 mm 1 m/s 738 mmHg 79%
    22:00 +21°C° 0 mm 1 m/s 738 mmHg 80%
    23:00 +21°C° 0 mm 1 m/s 738 mmHg 80%

    Poimâine, 25 August, Vineri

    Timp Temperatura Precipitaţii Vânt Presiune Umiditate
    00:00 +21°C° 0 mm 1 m/s 738 mmHg 80%
    01:00 +21°C° 0 mm 1 m/s 738 mmHg 80%
    02:00 +21°C° 0 mm 1 m/s 738 mmHg 80%
    03:00 +21°C° 0 mm 1 m/s 738 mmHg 80%
    04:00 +21°C° 0 mm 1 m/s 738 mmHg 80%
    05:00 +22°C° 0 mm 1 m/s 738 mmHg 78%
    06:00 +22°C° 0 mm 1 m/s 738 mmHg 77%
    07:00 +21°C° 0 mm 0 m/s 739 mmHg 75%
    08:00 +24°C° 0 mm 0 m/s 739 mmHg 67%
    09:00 +26°C° 0 mm 0 m/s 739 mmHg 60%
    10:00 +28°C° 0 mm 0 m/s 739 mmHg 52%
    11:00 +31°C° 0 mm 1 m/s 739 mmHg 48%
    12:00 +32°C° 0 mm 1 m/s 738 mmHg 45%
    13:00 +33°C° 0 mm 1 m/s 738 mmHg 41%
    14:00 +32°C° 0 mm 1 m/s 738 mmHg 42%
    15:00 +32°C° 0 mm 1 m/s 738 mmHg 42%
    16:00 +32°C° 0 mm 1 m/s 737 mmHg 43%
    17:00 +29°C° 0 mm 1 m/s 737 mmHg 50%
    18:00 +27°C° 0 mm 1 m/s 737 mmHg 57%
    19:00 +25°C° 0 mm 1 m/s 737 mmHg 65%
    20:00 +24°C° 0 mm 1 m/s 737 mmHg 67%
    21:00 +23°C° 0 mm 1 m/s 738 mmHg 69%
    22:00 +23°C° 0 mm 1 m/s 738 mmHg 71%
    23:00 +22°C° 0 mm 1 m/s 738 mmHg 73%

    26 August, Sâmbătă

    Timp Temperatura Precipitaţii Vânt Presiune Umiditate
    00:00 +22°C° 0 mm 1 m/s 737 mmHg 74%
    01:00 +22°C° 0 mm 1 m/s 737 mmHg 75%
    02:00 +21°C° 0 mm 1 m/s 737 mmHg 76%
    03:00 +21°C° 0 mm 1 m/s 737 mmHg 77%
    04:00 +21°C° 0 mm 1 m/s 737 mmHg 78%
    05:00 +22°C° 0 mm 1 m/s 737 mmHg 76%
    06:00 +21°C° 0 mm 0 m/s 738 mmHg 74%
    07:00 +22°C° 0 mm 0 m/s 738 mmHg 71%
    08:00 +24°C° 0 mm 0 m/s 738 mmHg 64%
    09:00 +27°C° 0 mm 0 m/s 738 mmHg 56%
    10:00 +31°C° 0 mm 1 m/s 738 mmHg 49%
    11:00 +32°C° 0 mm 1 m/s 738 mmHg 45%
    12:00 +33°C° 0 mm 1 m/s 737 mmHg 42%
    13:00 +34°C° 0 mm 1 m/s 737 mmHg 39%
    14:00 +34°C° 0 mm 1 m/s 737 mmHg 39%
    15:00 +33°C° 0 mm 1 m/s 737 mmHg 40%
    16:00 +33°C° 0 mm 1 m/s 736 mmHg 40%
    17:00 +31°C° 0 mm 1 m/s 736 mmHg 48%
    18:00 +29°C° 0 mm 1 m/s 736 mmHg 55%
    19:00 +24°C° 0 mm 0 m/s 736 mmHg 63%
    20:00 +25°C° 0,3 mm 1 m/s 736 mmHg 67%
    21:00 +24°C° 0,3 mm 1 m/s 736 mmHg 71%
    22:00 +23°C° 0,3 mm 1 m/s 736 mmHg 75%
    23:00 +23°C° 0 mm 1 m/s 736 mmHg 75%

    27 August, Duminică

    Timp Temperatura Precipitaţii Vânt Presiune Umiditate
    00:00 +23°C° 0 mm 1 m/s 736 mmHg 75%
    01:00 +23°C° 0 mm 1 m/s 736 mmHg 75%
    02:00 +22°C° 0,2 mm 1 m/s 736 mmHg 75%
    03:00 +22°C° 0,2 mm 1 m/s 736 mmHg 75%
    04:00 +22°C° 0,2 mm 1 m/s 736 mmHg 75%
    05:00 +23°C° 0,2 mm 1 m/s 736 mmHg 74%
    06:00 +23°C° 0,2 mm 1 m/s 736 mmHg 73%
    07:00 +24°C° 0,2 mm 1 m/s 736 mmHg 72%
    08:00 +27°C° 0,1 mm 1 m/s 737 mmHg 64%
    09:00 +29°C° 0,1 mm 1 m/s 737 mmHg 57%
    10:00 +31°C° 0,1 mm 1 m/s 737 mmHg 49%
    11:00 +32°C° 0 mm 1 m/s 736 mmHg 45%
    12:00 +33°C° 0 mm 1 m/s 736 mmHg 42%
    13:00 +34°C° 0 mm 1 m/s 736 mmHg 38%
    14:00 +34°C° 0 mm 1 m/s 736 mmHg 40%
    15:00 +33°C° 0 mm 1 m/s 735 mmHg 41%
    16:00 +33°C° 0 mm 1 m/s 735 mmHg 43%
    17:00 +31°C° 0,1 mm 1 m/s 735 mmHg 51%
    18:00 +28°C° 0,1 mm 1 m/s 735 mmHg 60%
    19:00 +26°C° 0,1 mm 1 m/s 735 mmHg 69%
    20:00 +25°C° 0 mm 1 m/s 735 mmHg 71%
    21:00 +25°C° 0 mm 1 m/s 735 mmHg 74%
    22:00 +24°C° 0 mm 1 m/s 735 mmHg 77%
    23:00 +24°C° 0 mm 1 m/s 735 mmHg 78%

    28 August, Luni

    Timp Temperatura Precipitaţii Vânt Presiune Umiditate
    00:00 +23°C° 0 mm 1 m/s 735 mmHg 78%
    01:00 +23°C° 0 mm 1 m/s 735 mmHg 79%
    02:00 +23°C° 0,2 mm 1 m/s 735 mmHg 80%
    03:00 +21°C° 0,2 mm 2 m/s 736 mmHg 82%
    04:00 +21°C° 0,2 mm 2 m/s 736 mmHg 84%
    05:00 +23°C° 0,1 mm 1 m/s 736 mmHg 83%
    06:00 +23°C° 0,1 mm 1 m/s 736 mmHg 82%
    07:00 +24°C° 0,1 mm 1 m/s 737 mmHg 81%
    08:00 +25°C° 0,4 mm 2 m/s 737 mmHg 74%
    09:00 +27°C° 0,4 mm 2 m/s 737 mmHg 67%
    10:00 +28°C° 0,4 mm 2 m/s 737 mmHg 60%
    11:00 +29°C° 0,1 mm 3 m/s 737 mmHg 56%
    12:00 +30°C° 0,1 mm 3 m/s 737 mmHg 52%
    13:00 +31°C° 0,1 mm 3 m/s 737 mmHg 48%
    14:00 +31°C° 0,1 mm 3 m/s 737 mmHg 49%
    15:00 +30°C° 0,1 mm 3 m/s 737 mmHg 51%
    16:00 +30°C° 0,1 mm 3 m/s 737 mmHg 52%
    17:00 +28°C° 0,1 mm 2 m/s 737 mmHg 60%
    18:00 +26°C° 0,1 mm 2 m/s 737 mmHg 68%
    19:00 +24°C° 0,1 mm 1 m/s 737 mmHg 76%
    20:00 +24°C° 0 mm 1 m/s 738 mmHg 78%
    21:00 +23°C° 0 mm 1 m/s 738 mmHg 81%
    22:00 +22°C° 0 mm 1 m/s 738 mmHg 83%
    23:00 +22°C° 0 mm 1 m/s 738 mmHg 84%
    Arată mai mult